Content
SEND FEEDBACK

Daily
Averages
Monthly
Summary
Sweden

OBBOLA, SWEDEN


Home > Europe > Sweden
Elevation: 22 feet     Latitude: 63 47N     Longitude: 020 17E

WEATHER
 
SELECT A DAY
Number of Records: 264,882;   Date Range: 1/10/97 - 11/25/14
 
SHARE

PRINT THIS DATA

[ ← Previous Day ]
WEATHER ALMANAC - JANUARY 23, 2013
[ Next Day → ]
[ °C ]   °F
Weather ElementAverageHighLow
Temperature13.1 °F19.4 °F (12:50 am)5 °F (4:50 pm)
Dewpoint8.5 °F15.8 °F (4:20 am)1.4 °F (4:50 pm)
Humidity82.1 %93 % (4:20 am)73 % (8:20 pm)
Barometer29.81 in29.83 in (12:50 am)29.77 in (7:20 pm)
Wind Speed6.6 mph10.4 mph (4:50 am)
Weather ElementAverage
Visibility6.2 mi
Wind DirectionWNW (297.4 °)

Weather ElementTotal
Precipitation---
Heating Degree Days52.8 (Base 65)
Averaged from 47 records on January 23, 2013
WEATHER CONDITIONS BREAKOUT
WIND DIRECTION BREAKOUT
WEATHER BY HOUR - JANUARY 23, 2013
[ °C ]   °F
Local TimeTemperatureDewpointHumidityBarometerVisibilityWind DirectionWind SpeedGust SpeedPrecipitationEventsConditions
12:50 AM19.4 °F14.0 °F80 %29.83 inNW (320°)8.1 mphClear
1:20 AM17.6 °F12.2 °F79 %29.83 inNW (310°)8.1 mphClear
1:50 AM15.8 °F10.4 °F79 %29.83 inWNW (300°)6.9 mphClear
2:20 AM14.0 °F10.4 °F86 %29.83 inNW (310°)4.6 mphClear
2:50 AM8.6 °F5.0 °F85 %29.83 inWNW (300°)4.6 mphClear
3:20 AM6.8 °F3.2 °F85 %29.80 inVariable2.3 mphClear
3:50 AM8.6 °F6.8 °F92 %29.80 in6.2 miWNW (300°)3.5 mph
4:20 AM17.6 °F15.8 °F93 %29.80 inNW (310°)9.2 mphClear
4:50 AM19.4 °F12.2 °F74 %29.80 inNW (310°)10.4 mphClear
5:20 AM19.4 °F12.2 °F74 %29.80 in6.2 miNW (320°)9.2 mphScattered Clouds
5:50 AM19.4 °F12.2 °F74 %29.80 inNW (320°)10.4 mphClear
6:20 AM19.4 °F12.2 °F74 %29.80 in6.2 miNNW (340°)8.1 mphMostly Cloudy
6:50 AM15.8 °F10.4 °F79 %29.80 in6.2 miWNW (300°)5.8 mphOvercast
7:20 AM17.6 °F12.2 °F79 %29.80 in6.2 miWNW (290°)5.8 mphOvercast
7:50 AM14.0 °F8.6 °F79 %29.80 inWNW (300°)3.5 mphClear
8:20 AM15.8 °F10.4 °F79 %29.80 in6.2 miWNW (290°)5.8 mphSnowLight Snow
8:50 AM17.6 °F12.2 °F79 %29.80 inNNW (340°)3.5 mphClear
9:20 AM15.8 °F12.2 °F86 %29.80 inWNW (300°)6.9 mphClear
9:50 AM15.8 °F12.2 °F86 %29.80 inNNW (330°)4.6 mphClear
10:20 AM15.8 °F12.2 °F86 %29.83 inWest (280°)3.5 mphClear
10:50 AM12.2 °F8.6 °F85 %29.83 inWNW (290°)6.9 mphClear
11:20 AM14.0 °F10.4 °F86 %29.83 inNW (310°)4.6 mphClear
11:50 AM14.0 °F10.4 °F86 %29.83 in6.2 miWNW (300°)4.6 mphScattered Clouds
12:20 PM14.0 °F12.2 °F93 %29.83 inNW (320°)3.5 mphClear
12:50 PM14.0 °F10.4 °F86 %29.83 inNW (310°)5.8 mphClear
1:20 PM14.0 °F10.4 °F86 %29.80 in6.2 miNW (310°)4.6 mph
1:50 PM15.8 °F12.2 °F86 %29.83 inNW (310°)3.5 mphClear
2:20 PM10.4 °F6.8 °F85 %29.80 inWNW (290°)5.8 mphClear
2:50 PM12.2 °F8.6 °F85 %29.80 inWNW (300°)4.6 mphClear
3:20 PM12.2 °F8.6 °F85 %29.80 inWNW (290°)6.9 mphClear
3:50 PM12.2 °F8.6 °F85 %29.80 inWest (280°)4.6 mphClear
4:20 PM8.6 °F6.8 °F92 %29.80 inWNW (290°)5.8 mphClear
4:50 PM5.0 °F1.4 °F85 %29.80 inWNW (300°)3.5 mphClear
5:20 PM6.8 °F3.2 °F85 %29.80 inWNW (300°)5.8 mphClear
5:50 PM5.0 °F1.4 °F85 %29.80 inWNW (300°)6.9 mphClear
6:20 PM10.4 °F6.8 °F85 %29.80 inWNW (300°)9.2 mphClear
6:50 PM12.2 °F6.8 °F79 %29.80 inNW (310°)9.2 mphClear
7:20 PM10.4 °F5.0 °F79 %29.77 inWNW (290°)9.2 mphClear
7:50 PM10.4 °F5.0 °F79 %29.77 inWNW (300°)8.1 mphClear
8:20 PM12.2 °F5.0 °F73 %29.80 inNW (310°)10.4 mphClear
8:50 PM10.4 °F5.0 °F79 %29.80 inNW (310°)9.2 mphClear
9:20 PM10.4 °F3.2 °F73 %29.80 inWNW (300°)9.2 mphClear
9:50 PM12.2 °F5.0 °F73 %29.80 inWNW (300°)9.2 mphClear
10:20 PM10.4 °F5.0 °F79 %29.80 inWNW (290°)9.2 mphClear
10:50 PM10.4 °F5.0 °F79 %29.80 inWNW (300°)8.1 mphClear
11:20 PM10.4 °F5.0 °F79 %29.80 inWNW (300°)9.2 mphClear
11:50 PM10.4 °F5.0 °F79 %29.80 inWNW (300°)8.1 mphClear
Hourly data recorded from ESNU, located miles away from Obbola, Sweden







STORIES FROM OUR PARTNERS